Location: Alsip
(41.6689°N, 87.7387°W)
Time: 13:28:14
(UTC+00:00)

DELTA 2 DEB (DPAF) - Pass Details

Date: 14 July 2020
Orbit: 640 x 647 km, 98.3° (Epoch: 05 August)

Event Time Altitude Azimuth Distance (km) Brightness Sun altitude
Exits shadow 07:17:29 73° 128° (SE) 678 4.1 -24.0°
Maximum altitude 07:17:50 80° 76° (ENE) 661 4.1 -24.0°
Drops below altitude 10° 07:22:18 10° 349° (N) 2,050 7.5 -23.7°
Sets 07:24:31 0° 349° (NNW) 2,963 8.4 -23.6°
